FW2663 Weather Reports


time (UTC)temp
F
wind
direction
speed
knots
gust
knots
rain 1hr
in
rain 24hr
in
rain mn
in
humidity
%
barometer
mb
20260505051503 54 0 0.0 0.0 0.00 0.00 0.00 83 1011.7
20260505051003 55 0 0.0 0.0 0.00 0.00 0.00 84 1011.6
20260505050503 55 0 0.0 0.0 0.00 0.00 0.00 84 1011.6
20260505041503 56 0 0.0 0.0 0.00 0.00 0.00 81 1011.4
20260505041003 57 0 0.0 0.0 0.00 0.00 0.00 81 1011.4
20260505040524 57 0 0.0 0.0 0.00 0.00 0.00 81 1011.5
20260505040004 57 0 0.0 0.0 0.00 0.00 0.00 80 1011.4
20260505035503 57 0 0.0 0.0 0.00 0.00 0.00 80 1011.4
20260505035003 58 0 0.0 0.0 0.00 0.00 0.00 79 1011.5
20260505034503 58 0 0.0 0.0 0.00 0.00 0.00 79 1011.4
20260505034003 58 0 0.0 0.0 0.00 0.00 0.00 79 1011.5
20260505033503 58 0 0.0 0.0 0.00 0.00 0.00 79 1011.5
20260505033003 59 0 0.0 0.0 0.00 0.00 0.00 79 1011.5
20260505032503 59 0 0.0 0.0 0.00 0.00 0.00 79 1011.5
20260505032024 59 0 0.0 0.0 0.00 0.00 0.00 80 1011.5
20260505031503 59 0 0.0 0.0 0.00 0.00 0.00 78 1011.5
20260505031003 59 0 0.0 0.0 0.00 0.00 0.00 77 1011.5
20260505030503 60 0 0.0 0.0 0.00 0.00 0.00 76 1011.5
20260505030003 60 0 0.0 0.0 0.00 0.00 0.00 77 1011.5
20260505025503 60 0 0.0 0.0 0.00 0.00 0.00 77 1011.6
20260505025003 60 0 0.0 0.0 0.00 0.00 0.00 77 1011.6
20260505024503 60 0 0.0 0.0 0.00 0.00 0.00 77 1011.5
20260505024003 61 0 0.0 0.0 0.00 0.00 0.00 76 1011.5
20260505023503 61 0 0.0 0.0 0.00 0.00 0.00 76 1011.5
20260505023003 61 0 0.0 0.0 0.00 0.00 0.00 75 1011.5
20260505022503 61 0 0.0 0.0 0.00 0.00 0.00 74 1011.5
20260505022003 61 0 0.0 0.0 0.00 0.00 0.00 74 1011.6
20260505021503 62 0 0.0 0.0 0.00 0.00 0.00 73 1011.6
20260505021003 62 0 0.0 0.0 0.00 0.00 0.00 73 1011.6
20260505020503 62 0 0.0 0.0 0.00 0.00 0.00 73 1011.6
20260505020024 62 0 0.0 0.0 0.00 0.00 0.00 73 1011.5
20260505015503 62 0 0.0 0.0 0.00 0.00 0.00 73 1011.6
20260505015003 63 0 0.0 0.0 0.00 0.00 0.00 73 1011.5
20260505014503 63 0 0.0 0.0 0.00 0.00 0.00 73 1011.4
20260505014003 63 0 0.0 0.0 0.00 0.00 0.00 72 1011.4
20260505013503 63 0 0.0 0.0 0.00 0.00 0.00 72 1011.4
20260505013003 64 0 0.0 0.0 0.00 0.00 0.00 71 1011.3
20260505012503 64 0 0.0 0.0 0.00 0.00 0.00 72 1011.2
20260505012003 64 0 0.0 0.0 0.00 0.00 0.00 72 1011.1
20260505011524 65 0 0.0 0.0 0.00 0.00 0.00 71 1011.1
20260505011003 65 0 0.0 0.0 0.00 0.00 0.00 70 1011.1
20260505010503 65 0 0.0 0.0 0.00 0.00 0.00 70 1011.1
20260505010003 66 0 0.0 0.0 0.00 0.00 0.00 70 1011.0
20260505005524 66 0 0.0 0.0 0.00 0.00 0.00 69 1010.9
20260505005004 66 0 0.0 0.0 0.00 0.00 0.00 67 1010.8
20260505004503 67 0 0.0 0.0 0.00 0.00 0.00 67 1010.8
20260505004003 67 0 0.0 0.0 0.00 0.00 0.00 65 1010.7
20260505003503 68 0 0.0 0.0 0.00 0.00 0.00 65 1010.6
20260505003003 68 0 0.0 0.0 0.00 0.00 0.00 63 1010.6
20260505002503 69 0 0.0 0.0 0.00 0.00 0.00 62 1010.6
20260505002024 70 0 0.0 0.0 0.00 0.00 0.00 61 1010.6
20260505001503 70 0 0.0 0.0 0.00 0.00 0.00 60 1010.6
20260505001003 71 0 0.0 0.0 0.00 0.00 0.00 58 1010.6
20260505000503 71 0 0.0 0.0 0.00 0.00 0.00 58 1010.6
20260505000024 72 0 0.0 0.0 0.00 0.00 0.00 56 1010.6
20260504235503 72 0 0.0 0.0 0.00 0.00 0.00 56 1010.5
20260504235024 72 0 0.0 0.0 0.00 0.00 0.00 55 1010.5
20260504234524 73 0 0.0 0.0 0.00 0.00 0.00 54 1010.4
20260504234003 73 0 0.0 0.0 0.00 0.00 0.00 53 1010.5
20260504233503 73 0 0.0 0.0 0.00 0.00 0.00 53 1010.4
20260504233003 74 165 0.0 4.3 0.00 0.00 0.00 52 1010.4
20260504232503 74 165 0.0 4.3 0.00 0.00 0.00 52 1010.4
20260504232003 74 169 0.0 0.9 0.00 0.00 0.00 51 1010.4
20260504231503 74 189 0.0 0.9 0.00 0.00 0.00 51 1010.4
20260504231003 74 211 0.0 0.9 0.00 0.00 0.00 51 1010.5
20260504230503 74 211 0.0 6.1 0.00 0.00 0.00 51 1010.5
20260504230024 74 211 0.9 6.1 0.00 0.00 0.00 50 1010.5
20260504225503 74 215 0.0 5.2 0.00 0.00 0.00 49 1010.5
20260504225003 74 231 0.9 8.7 0.00 0.00 0.00 50 1010.5
20260504224503 75 227 0.9 9.6 0.00 0.00 0.00 50 1010.6
20260504224003 75 192 0.9 9.6 0.00 0.00 0.00 50 1010.6
20260504223503 75 181 0.9 5.2 0.00 0.00 0.00 49 1010.6
20260504223003 75 197 0.0 0.9 0.00 0.00 0.00 48 1010.7
20260504222524 75 219 0.9 7.0 0.00 0.00 0.00 49 1010.7
20260504222003 75 207 0.9 7.0 0.00 0.00 0.00 48 1010.7
20260504221503 76 178 0.0 4.3 0.00 0.00 0.00 48 1010.7
20260504221003 76 186 0.0 4.3 0.00 0.00 0.00 47 1010.7
20260504220503 76 188 0.0 5.2 0.00 0.00 0.00 47 1010.8
20260504220003 76 186 0.0 5.2 0.00 0.00 0.00 48 1010.8
20260504215524 76 183 0.0 5.2 0.00 0.00 0.00 48 1010.9
20260504215003 76 182 0.9 5.2 0.00 0.00 0.00 47 1011.0
20260504214503 76 179 0.0 4.3 0.00 0.00 0.00 46 1011.1
20260504214003 76 178 0.0 4.3 0.00 0.00 0.00 46 1011.0
20260504213503 76 177 0.0 4.3 0.00 0.00 0.00 47 1010.9
20260504213003 76 182 0.9 5.2 0.00 0.00 0.00 47 1010.8
20260504212503 76 182 0.9 5.2 0.00 0.00 0.00 46 1010.8
20260504212003 76 187 0.9 5.2 0.00 0.00 0.00 48 1010.7
20260504211503 76 210 0.9 6.1 0.00 0.00 0.00 46 1010.7
20260504211024 76 210 1.7 6.1 0.00 0.00 0.00 47 1010.6
20260504210503 76 209 1.7 6.1 0.00 0.00 0.00 46 1010.7
20260504210003 76 216 0.9 5.2 0.00 0.00 0.00 47 1010.7
20260504205503 76 212 0.9 6.1 0.00 0.00 0.00 47 1010.6
20260504205003 76 208 1.7 6.1 0.00 0.00 0.00 46 1010.6
20260504204503 76 213 0.9 7.8 0.00 0.00 0.00 46 1010.7
20260504204003 76 218 0.9 7.8 0.00 0.00 0.00 49 1010.7
20260504203503 76 219 0.9 7.8 0.00 0.00 0.00 46 1010.8
20260504203003 76 209 1.7 10.4 0.00 0.00 0.00 45 1010.8
20260504202503 76 203 1.7 10.4 0.00 0.00 0.00 46 1010.8
20260504202003 76 199 0.9 8.7 0.00 0.00 0.00 46 1011.0
20260504201524 76 193 2.6 8.7 0.00 0.00 0.00 44 1010.9
20260504201024 77 193 1.7 8.7 0.00 0.00 0.00 46 1010.9
20260504200503 77 231 1.7 8.7 0.00 0.00 0.00 45 1011.0
20260504200003 77 220 1.7 8.7 0.00 0.00 0.00 44 1011.0
20260504195503 77 199 2.6 10.4 0.00 0.00 0.00 45 1011.0
20260504195003 77 203 2.6 10.4 0.00 0.00 0.00 45 1011.0
20260504194503 77 204 1.7 7.8 0.00 0.00 0.00 46 1011.0
20260504194003 76 216 0.9 8.7 0.00 0.00 0.00 46 1011.1
20260504193503 76 207 1.7 8.7 0.00 0.00 0.00 45 1011.1
20260504193003 76 208 1.7 7.0 0.00 0.00 0.00 45 1011.1
20260504192503 76 226 0.9 7.0 0.00 0.00 0.00 44 1011.3
20260504192003 76 233 0.9 6.1 0.00 0.00 0.00 45 1011.4
20260504191524 76 237 0.9 7.8 0.00 0.00 0.00 44 1011.5
20260504191003 76 240 0.9 7.8 0.00 0.00 0.00 43 1011.4
20260504190504 77 239 0.9 9.6 0.00 0.00 0.00 43 1011.6
20260504190003 77 218 1.7 9.6 0.00 0.00 0.00 43 1011.7
20260504185503 78 221 1.7 7.0 0.00 0.00 0.00 40 1011.7
20260504185003 78 239 0.9 6.1 0.00 0.00 0.00 44 1011.7
20260504184503 77 231 1.7 13.0 0.00 0.00 0.00 43 1011.9
20260504184003 77 226 1.7 13.0 0.00 0.00 0.00 43 1011.8
20260504183503 77 216 0.9 4.3 0.00 0.00 0.00 42 1011.9
20260504183003 77 215 0.9 5.2 0.00 0.00 0.00 42 1012.0
20260504182503 77 214 0.9 5.2 0.00 0.00 0.00 43 1012.1
20260504182003 76 214 0.9 4.3 0.00 0.00 0.00 42 1012.2
20260504181524 76 223 0.9 7.8 0.00 0.00 0.00 43 1012.3
20260504181003 76 223 0.9 7.8 0.00 0.00 0.00 44 1012.4
20260504180524 76 210 0.9 7.0 0.00 0.00 0.00 42 1012.4
20260504180003 76 208 1.7 7.8 0.00 0.00 0.00 41 1012.5
20260504175503 76 209 0.9 7.8 0.00 0.00 0.00 42 1012.5
20260504175003 75 209 1.7 8.7 0.00 0.00 0.00 43 1012.5
20260504174503 75 213 1.7 8.7 0.00 0.00 0.00 41 1012.5
20260504174003 75 226 0.9 8.7 0.00 0.00 0.00 44 1012.7
20260504173524 75 212 1.7 8.7 0.00 0.00 0.00 42 1012.7
20260504173003 76 195 0.9 5.2 0.00 0.00 0.00 42 1012.8
20260504172503 76 190 0.9 7.0 0.00 0.00 0.00 44 1012.8
20260504172003 75 187 0.9 7.0 0.00 0.00 0.00 43 1012.8
20260504171524 74 183 0.9 5.2 0.00 0.00 0.00 42 1012.8
20260504171003 74 181 0.9 6.1 0.00 0.00 0.00 43 1012.7
20260504170503 74 179 0.9 6.1 0.00 0.00 0.00 44 1013.0
20260504151003 68 185 0.0 5.2 0.00 0.00 0.00 48 1014.6
20260504150503 68 184 0.0 5.2 0.00 0.00 0.00 51 1014.6
20260504141003 65 235 0.0 5.2 0.00 0.00 0.00 52 1014.6
20260504140503 65 0 0.0 0.0 0.00 0.00 0.00 52 1014.6
20260504130503 62 249 0.0 1.7 0.00 0.00 0.00 60 1014.8
20260504110503 48 0 0.0 0.0 0.00 0.00 0.00 85 1015.1
20260504100503 47 0 0.0 0.0 0.00 0.00 0.00 85 1014.7
20260504082003 48 0 0.0 0.0 0.00 0.00 0.00 80 1014.6
20260504081503 48 0 0.0 0.0 0.00 0.00 0.00 81 1014.6
20260504081003 48 0 0.0 0.0 0.00 0.00 0.00 81 1014.7
20260504080524 48 0 0.0 0.0 0.00 0.00 0.00 81 1014.7